DW0148 Weather Reports


time (UTC)temp
F
wind
direction
speed
knots
gust
knots
rain 1hr
in
rain 24hr
in
rain mn
in
humidity
%
barometer
mb
20260902161928 91 165 0.0 0.0 0.00 0.00 0.00 70 1017.9
20260902161356 90 162 0.0 0.0 0.00 0.00 0.00 71 1017.9
20260902160854 90 159 0.0 0.0 0.00 0.00 0.00 70 1017.9
20260902160354 90 167 0.0 0.0 0.00 0.00 0.00 71 1017.9
20260902155852 90 158 0.0 0.0 0.00 0.00 0.00 73 1017.9
20260902155351 90 163 0.0 0.0 0.00 0.00 0.00 73 1018.3
20260902154851 89 161 0.0 0.0 0.00 0.00 0.00 73 1018.3
20260902154350 90 163 0.0 0.0 0.00 0.00 0.00 73 1018.3
20260902153849 89 160 0.0 0.0 0.00 0.00 0.00 75 1018.3
20260902153347 88 163 0.0 0.0 0.00 0.00 0.00 75 1018.3
20260902152845 88 162 0.0 0.0 0.00 0.00 0.00 76 1018.3
20260902152344 88 159 0.0 0.0 0.00 0.00 0.00 75 1018.6
20260902151843 87 149 0.0 0.0 0.00 0.00 0.00 75 1018.3
20260902151343 87 149 0.0 0.0 0.00 0.00 0.00 76 1018.3
20260902150842 87 149 0.0 0.0 0.00 0.00 0.00 76 1018.3
20260902150339 86 155 0.0 0.0 0.00 0.00 0.00 78 1018.3
20260902145705 86 149 0.0 0.0 0.00 0.00 0.00 80 1018.3
20260902145204 85 146 0.0 0.0 0.00 0.00 0.00 78 1018.3
20260902144703 85 155 0.0 0.0 0.00 0.00 0.00 77 1018.3
20260902144201 85 149 0.0 0.0 0.00 0.00 0.00 78 1017.9
20260902143700 86 150 0.0 0.0 0.00 0.00 0.00 78 1018.3
20260902143159 86 148 0.0 0.0 0.00 0.00 0.00 76 1018.3
20260902142658 86 153 0.0 0.0 0.00 0.00 0.00 78 1018.3
20260902142157 85 150 0.0 0.0 0.00 0.00 0.00 80 1018.3
20260902141656 84 152 0.0 0.0 0.00 0.00 0.00 80 1018.3
20260902141121 83 149 0.0 0.0 0.00 0.00 0.00 81 1018.3
20260902140621 82 149 0.0 0.0 0.00 0.00 0.00 81 1018.3
20260902140049 82 150 0.0 0.0 0.00 0.00 0.00 81 1018.3
20260902135548 81 150 0.0 0.0 0.00 0.00 0.00 85 1018.3
20260902135046 81 152 0.0 0.0 0.00 0.00 0.00 84 1018.3
20260902134545 80 154 0.0 0.0 0.00 0.00 0.00 84 1018.3
20260902134043 80 149 0.0 0.0 0.00 0.00 0.00 87 1018.3
20260902133542 79 149 0.0 0.0 0.00 0.00 0.00 87 1018.3
20260902133041 78 149 0.0 0.0 0.00 0.00 0.00 91 1018.6
20260902132509 77 149 0.0 0.0 0.00 0.00 0.00 93 1018.6
20260902132008 76 149 0.0 0.0 0.00 0.00 0.00 95 1018.3
20260902131507 76 149 0.0 0.0 0.00 0.00 0.00 95 1018.3
20260902131006 75 149 0.0 0.0 0.00 0.00 0.00 95 1018.3
20260902130504 75 149 0.0 0.0 0.00 0.00 0.00 95 1018.3
20260902130002 75 150 0.0 0.0 0.00 0.00 0.00 95 1018.3
20260902125500 74 149 0.0 0.0 0.00 0.00 0.00 95 1018.3
20260902124959 74 149 0.0 0.0 0.00 0.00 0.00 95 1018.3
20260902124458 73 155 0.0 0.0 0.00 0.00 0.00 95 1018.3
20260902123957 73 155 0.0 0.0 0.00 0.00 0.00 95 1018.3
20260902123455 73 155 0.0 0.0 0.00 0.00 0.00 95 1018.3
20260902122954 73 155 0.0 0.0 0.00 0.00 0.00 95 1018.3
20260902122452 72 155 0.0 0.0 0.00 0.00 0.00 95 1018.3
20260902121920 72 155 0.0 0.0 0.00 0.00 0.00 95 1018.3
20260902121419 72 155 0.0 0.0 0.00 0.00 0.00 95 1017.9
20260902120745 72 155 0.0 0.0 0.00 0.00 0.00 95 1017.9
20260902120244 71 155 0.0 0.0 0.00 0.00 0.00 95 1017.9
20260902115742 71 155 0.0 0.0 0.00 0.00 0.00 95 1017.9
20260902115208 71 155 0.0 0.0 0.00 0.00 0.00 95 1017.9
20260902114707 71 155 0.0 0.0 0.00 0.00 0.00 95 1017.6
20260902114206 71 155 0.0 0.0 0.00 0.00 0.00 95 1017.6
20260902113634 71 155 0.0 0.0 0.00 0.00 0.00 95 1017.6
20260902113102 71 155 0.0 0.0 0.00 0.00 0.00 95 1017.6
20260902112601 71 155 0.0 0.0 0.00 0.00 0.00 95 1017.3
20260902112100 71 155 0.0 0.0 0.00 0.00 0.00 95 1017.3
20260902111559 71 155 0.0 0.0 0.00 0.00 0.00 95 1017.3
20260902111058 71 155 0.0 0.0 0.00 0.00 0.00 95 1017.3
20260902110557 71 155 0.0 0.0 0.00 0.00 0.00 95 1017.3
20260902110056 71 155 0.0 0.0 0.00 0.00 0.00 95 1017.3
20260902105555 72 155 0.0 0.0 0.00 0.00 0.00 95 1017.3
20260902105054 72 155 0.0 0.0 0.00 0.00 0.00 95 1017.3
20260902104553 72 155 0.0 0.0 0.00 0.00 0.00 95 1017.3
20260902104052 72 155 0.0 0.0 0.00 0.00 0.00 95 1016.9
20260902103551 72 155 0.0 0.0 0.00 0.00 0.00 95 1016.9
20260902103051 72 155 0.0 0.0 0.00 0.00 0.00 95 1016.9
20260902102549 72 155 0.0 0.0 0.00 0.00 0.00 95 1016.9
20260902102049 72 155 0.0 0.0 0.00 0.00 0.00 95 1016.9
20260902101517 72 155 0.0 0.0 0.00 0.00 0.00 95 1016.9
20260902101016 72 155 0.0 0.0 0.00 0.00 0.00 95 1016.9
20260902100515 72 155 0.0 0.0 0.00 0.00 0.00 95 1016.6
20260902095911 72 155 0.0 0.0 0.00 0.00 0.00 95 1016.6
20260902095410 72 155 0.0 0.0 0.00 0.00 0.00 95 1016.6
20260902094909 72 155 0.0 0.0 0.00 0.00 0.00 95 1016.6
20260902094408 72 155 0.0 0.0 0.00 0.00 0.00 95 1016.6
20260902093906 72 155 0.0 0.0 0.00 0.00 0.00 95 1016.6
20260902093405 72 155 0.0 0.0 0.00 0.00 0.00 95 1016.6
20260902092833 72 155 0.0 0.0 0.00 0.00 0.00 95 1016.6
20260902092331 72 155 0.0 0.0 0.00 0.00 0.00 95 1016.6
20260902091728 72 155 0.0 0.0 0.00 0.00 0.00 95 1016.6
20260902091227 72 155 0.0 0.0 0.00 0.00 0.00 95 1016.6
20260902090726 72 155 0.0 0.0 0.00 0.00 0.00 95 1016.6
20260902090225 72 155 0.0 0.0 0.00 0.00 0.00 95 1016.6
20260902085724 72 155 0.0 0.0 0.00 0.00 0.00 95 1016.3
20260902085223 72 155 0.0 0.0 0.00 0.00 0.00 95 1016.3
20260902084721 72 155 0.0 0.0 0.00 0.00 0.00 95 1016.3
20260902084219 72 155 0.0 0.0 0.00 0.00 0.00 95 1016.3
20260902083719 72 155 0.0 0.0 0.00 0.00 0.00 95 1015.9
20260902083217 72 155 0.0 0.0 0.00 0.00 0.00 95 1015.9
20260902082716 72 155 0.0 0.0 0.00 0.00 0.00 95 1015.9
20260902082214 72 155 0.0 0.0 0.00 0.00 0.00 95 1015.9
20260902081713 72 155 0.0 0.0 0.00 0.00 0.00 95 1015.9
20260902081212 72 155 0.0 0.0 0.00 0.00 0.00 95 1015.9
20260902080710 72 155 0.0 0.0 0.00 0.00 0.00 95 1015.9
20260902080209 72 155 0.0 0.0 0.00 0.00 0.00 95 1015.9
20260902075708 72 155 0.0 0.0 0.00 0.00 0.00 95 1015.9
20260902075207 72 155 0.0 0.0 0.00 0.00 0.00 95 1015.9
20260902074706 72 155 0.0 0.0 0.00 0.00 0.00 95 1015.9
20260902074205 72 155 0.0 0.0 0.00 0.00 0.00 95 1015.9
20260902073631 72 155 0.0 0.0 0.00 0.00 0.00 95 1015.9
20260902073130 72 155 0.0 0.0 0.00 0.00 0.00 95 1015.9
20260902072629 72 155 0.0 0.0 0.00 0.00 0.00 95 1015.9
20260902072128 72 155 0.0 0.0 0.00 0.00 0.00 95 1015.9
20260902071626 72 155 0.0 0.0 0.00 0.00 0.00 95 1016.3
20260902071125 73 155 0.0 0.0 0.00 0.00 0.00 95 1016.3
20260902070624 73 155 0.0 0.0 0.00 0.00 0.00 95 1016.3
20260902070123 73 155 0.0 0.0 0.00 0.00 0.00 95 1016.3
20260902065622 73 155 0.0 0.0 0.00 0.00 0.00 95 1016.3
20260902065121 73 155 0.0 0.0 0.00 0.00 0.00 95 1016.3
20260902064619 73 155 0.0 0.0 0.00 0.00 0.00 95 1016.3
20260902064016 73 155 0.0 0.0 0.00 0.00 0.00 95 1016.3
20260902063515 73 155 0.0 0.0 0.00 0.00 0.00 95 1016.3
20260902062942 73 155 0.0 0.0 0.00 0.00 0.00 95 1016.3
20260902062440 73 155 0.0 0.0 0.00 0.00 0.00 95 1016.3
20260902061939 73 155 0.0 0.0 0.00 0.00 0.00 95 1016.3
20260902061438 73 155 0.0 0.0 0.00 0.00 0.00 95 1016.3
20260902060906 73 155 0.0 0.0 0.00 0.00 0.00 95 1016.3
20260902060405 73 155 0.0 0.0 0.00 0.00 0.00 95 1016.3
20260902055904 73 155 0.0 0.0 0.00 0.00 0.00 95 1016.3
20260902055403 73 155 0.0 0.0 0.00 0.00 0.00 95 1016.6
20260902054901 73 155 0.0 0.0 0.00 0.00 0.00 95 1016.6
20260902054359 73 155 0.0 0.0 0.00 0.00 0.00 95 1016.3
20260902053858 73 155 0.0 0.0 0.00 0.00 0.00 95 1016.3
20260902053357 73 155 0.0 0.0 0.00 0.00 0.00 95 1016.3
20260902052855 73 155 0.0 0.0 0.00 0.00 0.00 95 1016.3
20260902052324 73 155 0.0 0.0 0.00 0.00 0.00 95 1016.3
20260902051752 73 155 0.0 0.0 0.00 0.00 0.00 95 1016.3
20260902051251 73 155 0.0 0.0 0.00 0.00 0.00 95 1016.3
20260902050749 73 155 0.0 0.0 0.00 0.00 0.00 95 1016.3
20260902050247 73 155 0.0 0.0 0.00 0.00 0.00 95 1016.3
20260902045746 73 155 0.0 0.0 0.00 0.00 0.00 95 1016.3
20260902045246 73 155 0.0 0.0 0.00 0.00 0.00 95 1016.3
20260902044745 73 155 0.0 0.0 0.00 0.00 0.00 95 1016.3
20260902044244 73 155 0.0 0.0 0.00 0.00 0.00 95 1016.3
20260902043742 74 155 0.0 0.0 0.00 0.00 0.00 95 1016.3
20260902043239 74 155 0.0 0.0 0.00 0.00 0.00 95 1016.3
20260902042738 74 155 0.0 0.0 0.00 0.00 0.00 95 1016.3
20260902042238 74 155 0.0 0.0 0.00 0.00 0.00 95 1016.3
20260902041736 74 155 0.0 0.0 0.00 0.00 0.00 95 1016.3
20260902041234 74 155 0.0 0.0 0.00 0.00 0.00 95 1016.3
20260902040733 74 155 0.0 0.0 0.00 0.00 0.00 95 1016.3
20260902040232 74 155 0.0 0.0 0.00 0.00 0.00 95 1016.3
20260902035659 74 155 0.0 0.0 0.00 0.00 0.00 95 1016.3
20260902035158 74 155 0.0 0.0 0.00 0.00 0.00 95 1016.3
20260902034657 75 155 0.0 0.0 0.00 0.00 0.00 94 1016.3
20260902034156 75 155 0.0 0.0 0.00 0.00 0.00 95 1016.3
20260902033655 75 155 0.0 0.0 0.00 0.00 0.00 94 1016.3
20260902033153 75 155 0.0 0.0 0.00 0.00 0.00 94 1016.3
20260902032652 75 155 0.0 0.0 0.00 0.00 0.00 94 1016.3
20260902032150 75 155 0.0 0.0 0.00 0.00 0.00 94 1016.3
20260902031649 75 155 0.0 0.0 0.00 0.00 0.00 95 1016.3
20260902031147 75 155 0.0 0.0 0.00 0.00 0.00 95 1016.3
20260902030647 75 155 0.0 0.0 0.00 0.00 0.00 94 1016.3
20260902030145 75 155 0.0 0.0 0.00 0.00 0.00 94 1016.3
20260902025643 75 153 0.0 0.0 0.00 0.00 0.00 94 1016.3
20260902025038 75 153 0.0 0.0 0.00 0.00 0.00 94 1016.3
20260902024537 75 153 0.0 0.0 0.00 0.00 0.00 94 1016.3
20260902024035 75 153 0.0 0.0 0.00 0.00 0.00 94 1016.3
20260902023533 75 153 0.0 0.0 0.00 0.00 0.00 94 1016.3
20260902023031 75 153 0.0 0.0 0.00 0.00 0.00 93 1015.9
20260902022531 75 153 0.0 0.0 0.00 0.00 0.00 93 1015.9
20260902022030 75 153 0.0 0.0 0.00 0.00 0.00 93 1015.9
20260902021528 75 153 0.0 0.0 0.00 0.00 0.00 92 1015.9
20260902021028 76 153 0.0 0.0 0.00 0.00 0.00 92 1015.9
20260902020527 76 153 0.0 0.0 0.00 0.00 0.00 92 1015.9
20260902015953 76 153 0.0 0.0 0.00 0.00 0.00 92 1015.9
20260902015451 76 153 0.0 0.0 0.00 0.00 0.00 92 1015.9
20260902014950 76 153 0.0 0.0 0.00 0.00 0.00 92 1015.9
20260902014449 76 153 0.0 0.0 0.00 0.00 0.00 92 1015.9
20260902013948 76 153 0.0 0.0 0.00 0.00 0.00 92 1015.9
20260902013447 76 153 0.0 0.0 0.00 0.00 0.00 91 1015.9
20260902012915 76 153 0.0 0.0 0.00 0.00 0.00 91 1015.9
20260902012414 76 153 0.0 0.0 0.00 0.00 0.00 91 1015.9
20260902011913 76 153 0.0 0.0 0.00 0.00 0.00 91 1015.9
20260902011339 77 153 0.0 0.0 0.00 0.00 0.00 91 1015.9
20260902010838 77 153 0.0 0.0 0.00 0.00 0.00 91 1015.6
20260902010337 77 155 0.0 0.0 0.00 0.00 0.00 90 1015.6
20260902005836 77 155 0.0 0.0 0.00 0.00 0.00 90 1015.6
20260902005335 77 153 0.0 0.0 0.00 0.00 0.00 90 1015.6
20260902004834 78 153 0.0 0.0 0.00 0.00 0.00 90 1015.6
20260902004333 78 155 0.0 0.0 0.00 0.00 0.00 89 1015.6
20260902003832 78 153 0.0 0.0 0.00 0.00 0.00 89 1015.6
20260902003331 78 153 0.0 0.0 0.00 0.00 0.00 89 1015.6
20260902002829 79 153 0.0 0.0 0.00 0.00 0.00 89 1015.2
20260902002328 79 153 0.0 0.0 0.00 0.00 0.00 88 1015.6
20260902001827 79 153 0.0 0.0 0.00 0.00 0.00 88 1015.6
20260902001326 80 153 0.0 0.0 0.00 0.00 0.00 88 1015.2
20260902000825 80 153 0.0 0.0 0.00 0.00 0.00 88 1015.6
20260902000324 81 153 0.0 0.0 0.00 0.00 0.00 88 1015.6
20260901235822 81 153 0.0 0.0 0.00 0.00 0.00 88 1015.6
20260901235320 82 153 0.0 0.0 0.00 0.00 0.00 87 1015.6
20260901234819 82 153 0.0 0.0 0.00 0.00 0.00 87 1015.6
20260901234318 82 153 0.0 0.0 0.00 0.00 0.00 87 1015.6
20260901233817 83 154 0.0 0.0 0.00 0.00 0.00 86 1015.6
20260901233316 83 153 0.0 0.0 0.00 0.00 0.00 85 1015.6
20260901232744 84 153 0.0 0.0 0.00 0.00 0.00 85 1015.6
20260901232210 84 153 0.0 0.0 0.00 0.00 0.00 84 1015.6
20260901231709 84 153 0.0 0.0 0.00 0.00 0.00 84 1015.6
20260901231208 85 154 0.0 0.0 0.00 0.00 0.00 84 1015.6
20260901230635 85 154 0.0 0.0 0.00 0.00 0.00 83 1015.6
20260901230134 86 154 0.0 0.0 0.00 0.00 0.00 82 1015.6
20260901225633 86 153 0.0 0.0 0.00 0.00 0.00 80 1015.6
20260901225132 86 153 0.0 0.0 0.00 0.00 0.00 79 1015.6
20260901224631 87 153 0.0 0.0 0.00 0.00 0.00 77 1015.6
20260901224129 87 153 0.0 0.0 0.00 0.00 0.00 76 1015.6
20260901223628 88 153 0.0 0.0 0.00 0.00 0.00 74 1015.6
20260901223127 89 153 0.0 0.0 0.00 0.00 0.00 73 1015.6
20260901222625 89 154 0.0 0.0 0.00 0.00 0.00 73 1015.6
20260901222124 89 154 0.0 0.0 0.00 0.00 0.00 71 1015.6
20260901221551 90 154 0.0 0.0 0.00 0.00 0.00 71 1015.6
20260901221050 90 153 0.0 0.0 0.00 0.00 0.00 68 1015.6
20260901220549 91 154 0.0 0.0 0.00 0.00 0.00 67 1015.6
20260901220047 91 154 0.0 0.0 0.00 0.00 0.00 64 1015.6
20260901215546 91 155 0.0 0.0 0.00 0.00 0.00 64 1015.6
20260901215044 91 153 0.0 0.0 0.00 0.00 0.00 63 1015.6
20260901214543 91 145 0.0 0.0 0.00 0.00 0.00 61 1015.6
20260901214042 92 148 0.0 0.0 0.00 0.00 0.00 60 1015.6
20260901213541 92 142 0.0 0.0 0.00 0.00 0.00 62 1015.6
20260901213040 93 141 0.0 0.0 0.00 0.00 0.00 59 1015.6
20260901212539 93 163 0.0 0.0 0.00 0.00 0.00 60 1015.6
20260901212038 94 145 0.0 0.0 0.00 0.00 0.00 57 1015.6
20260901211537 94 145 0.0 0.0 0.00 0.00 0.00 60 1015.6
20260901211034 94 146 0.0 0.0 0.00 0.00 0.00 58 1015.6
20260901210534 95 146 0.0 0.0 0.00 0.00 0.00 59 1015.6
20260901210031 95 174 0.0 0.0 0.00 0.00 0.00 57 1015.6
20260901205530 95 165 0.0 0.0 0.00 0.00 0.00 59 1015.6
20260901205030 95 173 0.0 0.0 0.00 0.00 0.00 59 1015.9
20260901204529 96 174 0.0 0.0 0.00 0.00 0.00 55 1015.9
20260901204028 96 174 0.0 0.0 0.00 0.00 0.00 56 1015.9
20260901203525 96 187 0.0 0.0 0.00 0.00 0.00 56 1015.9
20260901203025 96 174 0.0 0.0 0.00 0.00 0.00 56 1015.9
20260901202523 96 187 0.0 0.0 0.00 0.00 0.00 55 1015.9
20260901202022 96 186 0.0 0.0 0.00 0.00 0.00 53 1015.9
20260901201522 95 172 0.0 0.0 0.00 0.00 0.00 56 1015.9
20260901201021 95 162 0.0 0.0 0.00 0.00 0.00 53 1016.3
20260901200519 95 187 0.0 0.0 0.00 0.00 0.00 60 1016.3
20260901200018 95 188 0.0 0.0 0.00 0.00 0.00 59 1016.3
20260901195444 95 188 0.0 0.0 0.00 0.00 0.00 57 1016.3
20260901194943 95 183 0.0 0.0 0.00 0.00 0.00 56 1016.3
20260901194441 95 158 0.0 0.0 0.00 0.00 0.00 55 1016.3
20260901193940 94 150 0.0 0.0 0.00 0.00 0.00 60 1016.3
20260901193407 94 172 0.0 0.0 0.00 0.00 0.00 57 1016.3
20260901192906 94 143 0.0 0.0 0.00 0.00 0.00 59 1016.3
20260901192302 94 190 0.0 0.0 0.00 0.00 0.00 56 1016.3
20260901191801 93 155 0.0 0.0 0.00 0.00 0.00 56 1016.6
20260901191258 93 139 0.0 0.0 0.00 0.00 0.00 57 1016.6
20260901190756 93 140 0.0 0.0 0.00 0.00 0.00 56 1016.6
20260901190254 93 139 0.0 0.0 0.00 0.00 0.00 59 1016.6
20260901185753 93 143 0.0 0.0 0.00 0.00 0.00 59 1016.6
20260901185252 93 150 0.0 0.0 0.00 0.00 0.00 60 1016.9
20260901184751 93 188 0.0 0.0 0.00 0.00 0.00 57 1016.9
20260901184250 93 141 0.0 0.0 0.00 0.00 0.00 57 1016.9
20260901183748 94 139 0.0 0.0 0.00 0.00 0.00 56 1016.9
20260901183247 93 169 0.0 0.0 0.00 0.00 0.00 58 1016.9
20260901182745 93 181 0.0 0.0 0.00 0.00 0.00 59 1016.9
20260901182243 93 177 0.0 0.0 0.00 0.00 0.00 58 1017.3
20260901181741 93 142 0.0 0.0 0.00 0.00 0.00 56 1017.3
20260901181240 93 190 0.0 0.0 0.00 0.00 0.00 60 1017.3
20260901180739 93 142 0.0 0.0 0.00 0.00 0.00 58 1017.3
20260901180237 93 184 0.0 0.0 0.00 0.00 0.00 57 1017.3
20260901175736 93 185 0.0 0.0 0.00 0.00 0.00 60 1017.3
20260901175235 92 185 0.0 0.0 0.00 0.00 0.00 58 1017.3
20260901174734 92 166 0.0 0.0 0.00 0.00 0.00 56 1017.3
20260901174201 92 167 0.0 0.0 0.00 0.00 0.00 60 1017.6
20260901173700 92 181 0.0 0.0 0.00 0.00 0.00 57 1017.6